Location: Unspecified
(52.4292°N, 19.3359°E)
Time: 15:50:55
(UTC+02:00)

Transit 2A Rocket - Pass Details

Date: 24 May 2024
Orbit: 583 x 910 km, 66.7° (Epoch: 14 June)

Event Time Altitude Azimuth Distance (km) Brightness Sun altitude
Rises 05:45:25 0° 243° (WSW) 3,052 7.4 8.6°
Reaches altitude 10° 05:47:46 10° 250° (WSW) 2,189 6.8 8.9°
Maximum altitude 05:52:32 43° 322° (NW) 1,068 5.8 9.6°
Drops below altitude 10° 05:57:47 10° 34° (NE) 2,410 8.6 10.3°
Sets 06:00:29 0° 41° (NE) 3,396 9.5 10.7°
